Вернуться в каталог

ONEWEB-0120

АктивенСвязьPO
NORAD 47266·PAYLOAD·🇬🇧 United Kingdom

Запущен Dec 18, 2020 с Vostochny Cosmodrome

Loading…

Ближайшие Пролёты (ближайшие 24 часа)

TLE

СвежийSource: CelesTrak SupGP

Эпоха: Sep 14, 2026, 23:13 UTC

1 47266C 20100J   26257.96750418  .00000889  00000+0  24753-2 0  2574
2 47266  87.8986 332.8425 0001703  99.0381 295.9252 13.12444750    17

Отслеживайте ONEWEB-0120 в реальном времени с AllMySat

Download on the App Store